TimeMST,TemperatureF,Dew PointF,Humidity,Sea Level PressureIn,VisibilityMPH,Wind Direction,Wind SpeedMPH,Gust SpeedMPH,PrecipitationIn,Events,Conditions,WindDirDegrees,DateUTC
12:55 AM,23.0,14.0,68,29.91,10.0,South,5.8,-,N/A,,Clear,190,2012-12-07 07:55:00
1:55 AM,15.1,10.9,84,29.93,10.0,Calm,Calm,-,N/A,,Clear,0,2012-12-07 08:55:00
2:55 AM,15.1,10.0,80,29.91,10.0,Calm,Calm,-,N/A,,Clear,0,2012-12-07 09:55:00
3:55 AM,18.0,12.0,78,29.89,10.0,SE,4.6,-,N/A,,Clear,130,2012-12-07 10:55:00
4:55 AM,21.0,14.0,74,29.91,10.0,SE,6.9,-,N/A,,Clear,140,2012-12-07 11:55:00
5:55 AM,23.0,14.0,68,29.91,10.0,SE,5.8,-,N/A,,Clear,130,2012-12-07 12:55:00
6:55 AM,21.0,14.0,74,29.92,10.0,Calm,Calm,-,N/A,,Clear,0,2012-12-07 13:55:00
7:55 AM,23.0,16.0,74,29.94,10.0,NNW,4.6,-,N/A,,Clear,330,2012-12-07 14:55:00
8:55 AM,28.9,18.0,64,29.93,10.0,NNW,4.6,-,N/A,,Clear,340,2012-12-07 15:55:00
9:55 AM,41.0,21.0,45,29.88,10.0,West,5.8,-,N/A,,Clear,270,2012-12-07 16:55:00
10:55 AM,51.1,23.0,33,29.83,10.0,NNE,13.8,19.6,N/A,,Clear,20,2012-12-07 17:55:00
11:55 AM,51.1,21.9,32,29.80,10.0,ENE,8.1,-,N/A,,Clear,60,2012-12-07 18:55:00
12:55 PM,50.0,23.0,35,29.81,10.0,NNE,18.4,21.9,N/A,,Clear,20,2012-12-07 19:55:00
1:55 PM,45.0,21.0,39,29.87,10.0,ENE,17.3,-,N/A,,Clear,60,2012-12-07 20:55:00
2:55 PM,43.0,19.9,40,29.90,10.0,ENE,17.3,-,N/A,,Overcast,60,2012-12-07 21:55:00
3:55 PM,39.9,19.9,45,29.91,10.0,ENE,12.7,-,N/A,,Overcast,60,2012-12-07 22:55:00
4:55 PM,37.0,19.0,48,29.94,10.0,NE,8.1,-,N/A,,Overcast,50,2012-12-07 23:55:00
5:55 PM,35.1,18.0,50,29.97,10.0,NE,9.2,-,N/A,,Overcast,40,2012-12-08 00:55:00
6:55 PM,30.0,21.9,72,30.01,10.0,NNE,9.2,-,N/A,,Clear,30,2012-12-08 01:55:00
7:55 PM,27.0,21.9,81,30.04,10.0,NE,4.6,-,N/A,,Mostly Cloudy,40,2012-12-08 02:55:00
8:55 PM,27.0,21.9,81,30.02,10.0,WSW,3.5,-,N/A,,Overcast,250,2012-12-08 03:55:00
9:55 PM,21.0,19.0,92,29.99,10.0,Calm,Calm,-,N/A,,Scattered Clouds,0,2012-12-08 04:55:00
10:55 PM,15.1,12.9,91,29.98,10.0,Calm,Calm,-,N/A,,Clear,0,2012-12-08 05:55:00
11:55 PM,10.9,9.0,92,29.97,10.0,Calm,Calm,-,N/A,,Clear,0,2012-12-08 06:55:00